Annette Island, AK

3:56 AM AKDT on May 24, 2017 (GMT -0800)
Annette Island

Weather History for PANT - January, 2014

Change the Weather History Date:

Sunday, January 12, 2014

  Actual Average Record
Temperature  
Mean Temperature 40 °F 37 °F  
Max Temperature 45 °F 41 °F 59 °F (1986)
Min Temperature 34 °F 32 °F 4 °F (2005)
Degree Days  
Heating Degree Days 26 28  
Month to date heating degree days 336  
Since 1 July heating degree days 3247  
Cooling Degree Days 0    
Month to date cooling degree days  
Year to date cooling degree days  
Moisture  
Dew Point 38 °F    
Average Humidity 97    
Maximum Humidity 100    
Minimum Humidity 86    
Precipitation  
Precipitation 0.42 in 0.35 in 3.12 in (2009)
Month to date precipitation 4.18  
Year to date precipitation 4.18  
Snow  
Snow 0.00 in 0.20 in 5.20 in (1952)
Month to date snowfall 3.1  
Since 1 July snowfall 14.8  
Snow Depth -    
Sea Level Pressure  
Sea Level Pressure 29.41 in    
Wind  
Wind Speed 9 mph (SSW)    
Max Wind Speed 21 mph    
Max Gust Speed 32 mph    
Visibility 9 miles    
Events Rain , Snow    
T = Trace of Precipitation, MM = Missing Value Source: NWS Daily Summary

Daily Weather History Graph

Daily Weather History Graph

Search for Another Location

Airport or City:

Trip Planner

Search our weather history database for the weather conditions in past years. The results will help you decide how hot, cold, wet, or windy it might be!

Date:

Astronomy

Jan. 12, 2014 Rise Set
Actual Time 8:04 AM AKST 3:45 PM AKST
Civil Twilight 7:21 AM AKST 4:28 PM AKST
Nautical Twilight 6:35 AM AKST 5:14 PM AKST
Astronomical Twilight 5:51 AM AKST 5:58 PM AKST
Moon 1:21 PM AKST (1/12) 5:05 AM AKST (1/12)
Length of Visible Light 9h 07m
Length of Day
7h 40m
Waxing Gibbous, 90% of the Moon is Illuminated
Jan 12
Waxing Gibbous
Jan 15
Full
Jan 23
Last Quarter
Jan 30
New
Feb 6
First Quarter

Hourly Weather History & Observations

Time (AKST) Temp. Windchill Dew Point Humidity Pressure Visibility Wind Dir Wind Speed Gust Speed Precip Events Conditions
12:53 AM 37.0 °F 31.0 °F 34.0 °F 89% 29.48 in 10.0 mi SSE 8.1 mph - 0.00 in   Overcast
1:41 AM 34.0 °F 28.0 °F 32.0 °F 92% 29.45 in 4.0 mi SSE 6.9 mph - 0.02 in Snow Light Snow
1:53 AM 35.1 °F 29.3 °F 33.1 °F 92% 29.46 in 10.0 mi SSE 6.9 mph 19.6 mph 0.03 in Rain Light Rain
2:44 AM 35.1 °F 25.9 °F 34.0 °F 96% 29.43 in 9.0 mi SSE 13.8 mph 24.2 mph 0.01 in Rain Light Rain
2:53 AM 35.1 °F 26.9 °F 35.1 °F 100% 29.43 in 8.0 mi SSE 11.5 mph 28.8 mph 0.02 in Rain Light Rain
3:27 AM 35.1 °F 24.8 °F 35.1 °F 100% 29.41 in 6.0 mi SSE 17.3 mph 28.8 mph 0.04 in Rain Light Rain
3:53 AM 34.0 °F 22.7 °F 34.0 °F 100% 29.40 in 7.0 mi SE 19.6 mph 31.1 mph 0.08 in Rain Light Rain
4:53 AM 34.0 °F 22.4 °F 34.0 °F 100% 29.36 in 5.0 mi ESE 20.7 mph 32.2 mph 0.12 in Rain Rain
5:53 AM 39.0 °F 31.4 °F 39.0 °F 100% 29.33 in 9.0 mi SSW 12.7 mph 21.9 mph 0.04 in Rain Light Rain
6:28 AM 39.9 °F 35.8 °F 39.9 °F 100% 29.31 in 10.0 mi SSW 5.8 mph - 0.01 in   Overcast
6:53 AM 39.9 °F 36.7 °F 39.9 °F 100% 29.31 in 9.0 mi Variable 4.6 mph - 0.02 in Rain Light Rain
7:37 AM 39.0 °F 32.8 °F 39.0 °F 100% 29.32 in 10.0 mi WSW 9.2 mph - 0.03 in Rain Light Rain
7:53 AM 39.0 °F - 39.0 °F 100% 29.34 in 10.0 mi North - - 0.03 in Rain Light Rain
8:25 AM 39.0 °F 34.0 °F 39.0 °F 100% 29.34 in 10.0 mi SSW 6.9 mph - 0.03 in Rain Light Rain
8:53 AM 37.9 °F 32.7 °F 37.9 °F 100% 29.34 in 10.0 mi South 6.9 mph - 0.03 in Rain Light Rain
9:04 AM 37.9 °F 32.7 °F 37.9 °F 100% 29.34 in 10.0 mi South 6.9 mph - 0.01 in Rain Light Rain
9:22 AM 39.0 °F 34.0 °F 39.0 °F 100% 29.34 in 10.0 mi South 6.9 mph - 0.01 in Rain Light Rain
9:30 AM 39.0 °F 33.4 °F 39.0 °F 100% 29.34 in 7.0 mi South 8.1 mph 16.1 mph 0.01 in Rain Light Rain
9:32 AM 39.0 °F 32.8 °F 39.0 °F 100% 29.33 in 7.0 mi South 9.2 mph 16.1 mph 0.01 in Rain Light Rain
9:53 AM 39.0 °F 32.8 °F 39.0 °F 100% 29.33 in 10.0 mi SSE 9.2 mph 16.1 mph 0.02 in Rain Light Rain
10:45 AM 39.9 °F 34.5 °F 39.9 °F 100% 29.29 in 6.0 mi SE 8.1 mph - 0.00 in Rain Light Rain
10:53 AM 39.9 °F 34.5 °F 39.9 °F 100% 29.30 in 6.0 mi SE 8.1 mph - 0.01 in Rain Light Rain
11:12 AM 41.0 °F 38.0 °F 41.0 °F 100% 29.29 in 10.0 mi SE 4.6 mph - 0.00 in Rain Light Rain
11:53 AM 43.0 °F 37.7 °F 43.0 °F 100% 29.30 in 10.0 mi WSW 9.2 mph - 0.01 in Rain Light Rain
12:13 PM 44.1 °F 39.5 °F 44.1 °F 100% 29.30 in 10.0 mi WSW 8.1 mph - 0.00 in   Overcast
12:53 PM 44.1 °F 38.6 °F 44.1 °F 100% 29.31 in 10.0 mi WSW 10.4 mph 18.4 mph 0.00 in   Overcast
1:14 PM 45.0 °F 40.6 °F 44.1 °F 97% 29.33 in 10.0 mi WSW 8.1 mph - N/A   Overcast
1:53 PM 44.1 °F 41.5 °F 44.1 °F 100% 29.36 in 10.0 mi Variable 4.6 mph - 0.00 in Rain Light Rain
2:08 PM 44.1 °F 40.8 °F 44.1 °F 100% 29.37 in 10.0 mi Variable 5.8 mph - 0.00 in   Overcast
2:53 PM 44.1 °F 40.1 °F 42.1 °F 93% 29.39 in 10.0 mi Variable 6.9 mph - 0.00 in   Overcast
3:53 PM 42.1 °F 37.1 °F 39.9 °F 92% 29.44 in 10.0 mi West 8.1 mph - N/A   Overcast
4:53 PM 39.9 °F 36.7 °F 39.0 °F 97% 29.47 in 10.0 mi West 4.6 mph - N/A   Scattered Clouds
5:53 PM 39.9 °F 35.8 °F 37.0 °F 89% 29.48 in 10.0 mi Variable 5.8 mph - N/A   Overcast
6:53 PM 39.9 °F 37.8 °F 37.0 °F 89% 29.51 in 10.0 mi Variable 3.5 mph - 0.00 in Rain Light Rain
7:53 PM 37.9 °F 33.5 °F 37.9 °F 100% 29.55 in 10.0 mi West 5.8 mph - 0.01 in   Overcast
8:53 PM 37.9 °F - 37.0 °F 97% 29.59 in 10.0 mi Calm Calm - N/A   Mostly Cloudy
9:51 PM 37.4 °F 32.8 °F 37.4 °F 100% 29.63 in 10.0 mi Variable 5.8 mph - N/A   Overcast
9:53 PM 37.9 °F 32.1 °F 36.0 °F 93% 29.63 in 10.0 mi West 8.1 mph - N/A   Mostly Cloudy
10:10 PM 37.9 °F 34.4 °F 36.0 °F 93% 29.65 in 10.0 mi WSW 4.6 mph - N/A   Scattered Clouds
10:53 PM 37.9 °F 32.1 °F 37.0 °F 97% 29.69 in 10.0 mi West 8.1 mph - N/A   Clear
11:53 PM 39.0 °F 35.7 °F 35.1 °F 86% 29.74 in 10.0 mi West 4.6 mph - N/A   Clear